SES-6 (39172 NORAD) Tracking and Keplerian Element Data

This shows tracking and keplerian element data for the satellite.

Feedback or suggestion? Click here.




ElementValue
Catalog39172
NameSES-6
Epoch Orbit4158
Epoch Day286.82647172
Epoch Year2024
RAAN348.3946
Inclination0.034
Eccentricity0.0002385
Argument of Perigee219.2027
Mean Anonmoly71.3477
Mean Motion1.00272655
Decay Rate-2.61E-06
L11 39172U 13026A 24286.82647172 -.00000261 00000+0 00000+0 0 9991
L22 39172 0.0340 348.3946 0002385 219.2027 71.3477 1.00272655 41584



Live tracking and technical data element details for SES-6 (NORAD 39172). SES-6 can be tracked NOW for your location showing map with azimuth and elevation plus other details from your city location.







IsCatalogInMostPopularTable: catalog: 39172, numindb: 610
Update: records affected: 1



GetName: 39172 SES-6

Hit Count: updated at: Wed, 04 Dec 2024 13:17:10 GMT